Location: Rioux
(40.7500°S, 175.7500°E)
Time: 09:16:55
(UTC+00:00)

SL-16 R/B - Pass Details

Date: 12 June 2024
Orbit: 839 x 849 km, 71.0° (Epoch: 20 July)

Event Time Altitude Azimuth Distance (km) Brightness Sun altitude
Exits shadow 16:26:05 15° 157° (SSE) 2,179 4.5 -35.5°
Drops below altitude 10° 16:26:55 10° 157° (SSE) 2,491 4.8 -35.4°
Sets 16:29:23 0° 156° (SSE) 3,431 5.6 -34.9°
